Regional Weather Roundup
Issued by NWS

Home | Current Version | Previous Version | Text Only | Print | Product List | Glossary On
Versions: 1 2 3 4 5 6 7 8 9 10 11 12 13 14 15 16 17 18 19 20 21 22 23 24 25 26 27 28 29 30 31 32 33 34 35 36 37 38 39 40 41 42 43 44 45 46 47 48 49 50
000
ASUS44 KOUN 290710
RWROK

WEATHER ROUNDUP FOR OKLAHOMA
NATIONAL WEATHER SERVICE NORMAN OK
200 AM CDT SAT AUG 29 2015

NOTE: "FAIR" INDICATES FEW OR NO CLOUDS BELOW 12,000 FEET WITH NO
      SIGNIFICANT WEATHER AND/OR OBSTRUCTIONS TO VISIBILITY.

OKZ001>007-009>012-014-015-017-290800-
NORTHWEST OKLAHOMA AND THE PANHANDLE

CITY           SKY/WX    TMP DP  RH WIND       PRES   REMARKS
GAGE           PTCLDY    71  61  70 CALM      30.03S
GUYMON         MOCLDY    68  60  75 NW7       30.10R
ENID/WOODRING  MOCLDY    70  70 100 CALM      29.94S
$$

OKZ016-021>023-033>039-044-045-290800-
SOUTHWEST OKLAHOMA

CITY           SKY/WX    TMP DP  RH WIND       PRES   REMARKS
LAWTON/REGL    MOCLDY    75  66  73 CALM      29.97S
LAWTON/FT SILL MOCLDY    79  67  66 CALM      29.97R
FREDERICK      MOCLDY    77  68  73 S7        29.95S
CLINTON        MOCLDY    76  62  62 SW9       30.02S
HOBART         MOCLDY    75  65  70 SW3       30.00R
ALTUS AFB      MOCLDY    73  67  82 NE2       29.98R
$$

OKZ018>020-024>031-290800-
CENTRAL OKLAHOMA

CITY           SKY/WX    TMP DP  RH WIND       PRES   REMARKS
OKLAHOMA CITY  MOCLDY    71  66  84 S7        29.97S
OKC/WILEY POST CLEAR     76  65  68 S8        29.97S
OKC/TINKER AFB CLEAR     74  66  77 S12       29.96F
STILLWATER     PTCLDY    71  68  90 S6        29.95S
GUTHRIE        CLEAR     73  68  84 S5        29.95S
$$

OKZ008-013-054>072-290800-
NORTHEAST OKLAHOMA

CITY           SKY/WX    TMP DP  RH WIND       PRES   REMARKS
TULSA          PTCLDY    75  67  76 S9        29.94S
TULSA/JONES    PTCLDY    72  68  87 S5        29.95F
PONCA CITY     LGT RAIN  71  68  90 N5        29.96R
BARTLESVILLE   PTCLDY    70  69  97 S5        29.95S
MUSKOGEE       CLOUDY    73  67  81 S5        29.98S
$$

OKZ032-040>043-046>053-073>077-290800-
SOUTH CENTRAL/SOUTHEAST OKLAHOMA

CITY           SKY/WX    TMP DP  RH WIND       PRES   REMARKS
ARDMORE/DWNTWN MOCLDY    79  63  57 S5        29.97S
MCALESTER      CLOUDY    78  59  51 VRB6      29.98F
$$



USA.gov is the U.S. government's official web portal to all federal, state and local government web resources and services.